Flag for Netherlands Weather past 2 weeks in Amsterdam, Netherlands

Now
54 °F

Passing clouds.


Feels Like: 50 °F
Forecast: 53 / 61 °F
Wind: 10 mph from Southwest

Location: Amsterdam Schiphol Airport

Current Time: Sep 2, 2015 at 6:36:25 AM

Latest Report: Sep 2, 2015 at 5:55 AM


Visibility: N/A

Pressure: 30.01 "Hg

Humidity: 94%

Dew point: 52 °F

Location of AmsterdamLocation

Historic Weather in Amsterdam — Graph

°F

Amsterdam temperature yesterday

Maximum temperature yesterday: 66 °F (at 2:25 PM)
Minimum temperature yesterday: 55 °F (at 9:55 PM)
Average temperature yesterday: 61 °F

Past Weeks' High & Low Weather Summary

 TemperatureHumidityPressure
High79 °F (Aug 22, 1:55 PM)100% (Aug 18, 4:25 AM)30.21 "Hg (Aug 18, 4:25 AM)
Low50 °F (Sep 2, 3:25 AM)42% (Aug 22, 2:55 PM)29.45 "Hg (Aug 24, 4:25 PM)
Average65 °F79%29.93 "Hg
* Reported Aug 18 4:25 AM — Sep 2 4:55 AM, Amsterdam, Weather by CustomWeather, © 2015

Note: Actual official high and low records may vary slightly from our data, if they occured in-between our weather recording intervals... More about our weather records

Advertising

Amsterdam weather history for previous 24 hours

 ConditionsComfort  
Time TempWeatherWind HumidityBarometerVisibility
4:55 AM
Wed, Sep 2
54 °FPassing clouds.7 mph94%30.01 "HgN/A
4:25 AM55 °FSprinkles. Partly cloudy.8 mph82%30.01 "HgN/A
3:55 AM54 °FClear.9 mph82%30.01 "Hg10 mi
3:25 AM50 °FClear.8 mph88%30.01 "Hg10 mi
2:55 AM52 °FPassing clouds.7 mph88%30.01 "HgN/A
2:25 AM54 °FPassing clouds.6 mph82%30.04 "HgN/A
1:55 AM54 °FPassing clouds.7 mph82%30.04 "HgN/A
1:25 AM54 °FPassing clouds.8 mph82%30.04 "HgN/A
12:55 AM55 °FClear.9 mph82%30.04 "Hg10 mi
11:25 PM
Tue, Sep 1
57 °FPassing clouds.9 mph77%30.04 "HgN/A
10:55 PM57 °FPassing clouds.9 mph77%30.01 "HgN/A
10:25 PM55 °FPassing clouds.7 mph82%30.01 "HgN/A
9:55 PM55 °FPassing clouds.8 mph82%30.01 "HgN/A
9:25 PM57 °FPassing clouds.8 mph77%30.01 "HgN/A
8:55 PM57 °FPassing clouds.9 mph77%30.01 "HgN/A
8:25 PM59 °FPassing clouds.10 mph72%30.01 "HgN/A
7:55 PM59 °FPassing clouds.15 mph77%30.01 "HgN/A
7:25 PM61 °FPassing clouds.13 mph72%30.01 "HgN/A
6:55 PM61 °FPassing clouds.16 mph72%29.98 "HgN/A
6:25 PM63 °FScattered clouds.16 mph68%29.98 "HgN/A
5:55 PM63 °FScattered clouds.14 mph68%29.98 "HgN/A
5:25 PM64 °FScattered clouds.15 mph64%29.98 "HgN/A
4:55 PM63 °FScattered clouds.16 mph73%29.98 "HgN/A
4:25 PM64 °FScattered clouds.17 mph64%29.98 "HgN/A
3:55 PM66 °FScattered clouds.16 mph64%29.98 "HgN/A
3:25 PM64 °FScattered clouds.18 mph68%29.95 "HgN/A
2:55 PM66 °FScattered clouds.18 mph68%29.95 "HgN/A
2:25 PM66 °FScattered clouds.17 mph68%29.95 "HgN/A
1:55 PM64 °FScattered clouds.15 mph73%29.95 "HgN/A
1:25 PM64 °FScattered clouds.16 mph73%29.92 "HgN/A
12:55 PM64 °FPassing clouds.16 mph73%29.92 "HgN/A
12:25 PM64 °FPassing clouds.16 mph73%29.92 "HgN/A
11:55 AM63 °FPassing clouds.14 mph77%29.92 "HgN/A
11:25 AM64 °FPassing clouds.15 mph78%29.89 "HgN/A
10:55 AM64 °FPassing clouds.13 mph78%29.89 "HgN/A
10:25 AM63 °FPassing clouds.12 mph83%29.89 "HgN/A
9:55 AM61 °FPassing clouds.8 mph88%29.89 "HgN/A
9:25 AM61 °FSprinkles. Broken clouds.10 mph88%29.89 "HgN/A
8:55 AM61 °FScattered showers. Scattered clouds.8 mph88%29.89 "HgN/A
8:25 AM61 °FScattered clouds.7 mph88%29.89 "HgN/A
7:55 AM59 °FScattered clouds.8 mph94%29.86 "HgN/A
7:25 AM59 °FPartly cloudy.8 mph94%29.86 "HgN/A
6:55 AM59 °FPassing clouds.9 mph94%29.86 "HgN/A
Weather by CustomWeather, © 2015

See weather overviewHow to use our weather pages